{"data":{"norad_id":62312,"intl_designator":"2024-239M","name":"STARLINK-32698","alt_names":[],"object_type":"PAYLOAD","status":"ACTIVE","operator":null,"country":"US","launch_date":"2024-12-13","launch_site_code":"AFWTR","launch_vehicle":null,"mission":null,"orbit_class":"UNKNOWN","rcs_meters":null,"size_class":null,"mass_kg":null,"dimensions":null,"purposes":["comms"],"wikipedia_slug":null,"has_3d_model":false,"image_url":null,"decayed_at":null,"tle_current":{"epoch":"2026-09-21T18:16:43.832352Z","epoch_age_seconds":68403,"freshness":"FRESH","line1":"1 62312U 24239M   26264.76161843  .00030827  00000+0  91943-3 0  9998","line2":"2 62312  53.1604 359.6292 0001020  88.9904 271.1216 15.34410973 99456","mean_motion":15.34410973,"eccentricity":0.000102,"inclination_deg":53.1604,"raan_deg":359.6292,"arg_perigee_deg":88.9904,"mean_anomaly_deg":271.1216,"bstar":0.00091943,"rev_number":9945,"period_min":93.847086949892,"perigee_km":461.97286395512,"apogee_km":463.3683887109,"semimajor_km":6840.807626333,"source":"CELESTRAK","updated_at":"2026-09-22T09:00:49.573058Z"}}}